CZ-6A DEB, 54621

Orbit data source: Space-Track

CZ-6A DEB, 54621 is space debris in SSO originally from a launch on Fri, 11 Nov 2022 UTC launched from the Taiyaun Space Center, China (TSC). Debris objects in space refer to the collection of defunct objects orbiting the Earth. Examples of debris include non-operational satellites, rocket bodies, and fragments generated from explosions, collisions, or faulty payload assembly.

Loading next visibility...
Identifier
54621, 2022-151NX
Orbit
SSO
Country
Flag of CNCN / PRC
Related business
Manufacturer
SAST
Mission
Spacecraft
Bus & Motor
Unknown
Mass
Unknown
Launch date (UTC)
2022-11-11 (4 years ago)
Launch vehicle
Unknown
Launch site
Taiyaun Space Center, China (TSC)
Object type
Payload
Rocket body
Debris
Shape & HBR
Unknown shape, 0.1 m
Radar Cross Section
Medium (>0.1 m² and <1 m²)

Expand to show TLE details & history
Last TLE update: 23 hours ago

TLE from 23 hours ago
0 CZ-6A DEB
1 54621U 22151NX  26235.40331841  .00000615  00000-0  37360-3 0  9995
2 54621  98.8514 227.8497 0059254 150.8299 209.6202 14.09070396192926
Epoch: 2026-08-23T09:40Z
TLE epoch observation values (Epoch: 2026-08-23T09:40:46.710Z)
Latitude
-0.00002°
Longitude
110.95521°
Altitude
902.816 km
Speed
7.382 km/s
True Right ascension
15h 11m 23s
True Declination
0° 00' 00"
Sunlit
Object was in daylight at epoch
Visualization orbit readout
Latitude
Unknown
Longitude
Unknown
Altitude
Unknown
Speed
Unknown
Apparent Right ascension
Unknown
Apparent Declination
Unknown
Sunlit
N/A
Visualization observer readout
Local Sidereal Time
23:56:00
Azimuth
Unknown
Elevation
Unknown
Doppler factor
Unknown
Orbital elements
Apogee altitude
902.622 km
Perigee altitude
816.847 km
Semi-major axis
7,237.871 km
Eccentricity
0.00593
Inclination
98.8514°
RAAN
227.8497°
Arg. of periapsis
150.8299°
True anomaly
209.28675°
Mean anomaly
209.6202°
Eccentric anomaly
209.45326°
Mean motion
3.52474 °/min
Orbital period
102.14 mins
BSTAR
0.0003736
Loading maneuver chart data...
Computing Atmospheric mass density...
Loading historical data...
Loading historical data...
Loading historical data...
Loading historical data...
Loading historical data...
Loading historical data...
Loading historical data...

Documentation

Showing up to 5 results
|